Year,Month,Day,Hour,Minute,Value (Times are PST for temperature in C)
2021,06,26,00,00,23.00
2021,06,26,00,01,23.00
2021,06,26,00,02,22.90
2021,06,26,00,03,22.90
2021,06,26,00,04,22.90
2021,06,26,00,05,22.90
2021,06,26,00,06,22.90
2021,06,26,00,07,22.90
2021,06,26,00,08,22.80
2021,06,26,00,09,22.80
2021,06,26,00,10,22.80
2021,06,26,00,11,22.80
2021,06,26,00,12,22.80
2021,06,26,00,13,22.80
2021,06,26,00,14,22.80
2021,06,26,00,15,22.80
2021,06,26,00,16,22.80
2021,06,26,00,17,22.80
2021,06,26,00,18,22.80
2021,06,26,00,19,22.80
2021,06,26,00,20,22.80
2021,06,26,00,21,22.80
2021,06,26,00,22,22.80
2021,06,26,00,23,22.80
2021,06,26,00,24,22.80
2021,06,26,00,25,22.70
2021,06,26,00,26,22.70
2021,06,26,00,27,22.70
2021,06,26,00,28,22.70
2021,06,26,00,29,22.60
2021,06,26,00,30,22.60
2021,06,26,00,31,22.60
2021,06,26,00,32,22.60
2021,06,26,00,33,22.50
2021,06,26,00,34,22.50
2021,06,26,00,35,22.50
2021,06,26,00,36,22.50
2021,06,26,00,37,22.50
2021,06,26,00,38,22.50
2021,06,26,00,39,22.50
2021,06,26,00,40,22.40
2021,06,26,00,41,22.40
2021,06,26,00,42,22.40
2021,06,26,00,43,22.40
2021,06,26,00,44,22.30
2021,06,26,00,45,22.30
2021,06,26,00,46,22.30
2021,06,26,00,47,22.30
2021,06,26,00,48,22.20
2021,06,26,00,49,22.20
2021,06,26,00,50,22.20
2021,06,26,00,51,22.10
2021,06,26,00,52,22.10
2021,06,26,00,53,22.10
2021,06,26,00,54,22.10
2021,06,26,00,55,22.00
2021,06,26,00,56,22.00
2021,06,26,00,57,21.90
2021,06,26,00,58,21.90
2021,06,26,00,59,21.80
2021,06,26,01,00,21.80
2021,06,26,01,01,21.80
2021,06,26,01,02,21.80
2021,06,26,01,03,21.80
2021,06,26,01,04,21.80
2021,06,26,01,05,21.80
2021,06,26,01,06,21.70
2021,06,26,01,07,21.70
2021,06,26,01,08,21.70
2021,06,26,01,09,21.70
2021,06,26,01,10,21.70
2021,06,26,01,11,21.70
2021,06,26,01,12,21.70
2021,06,26,01,13,21.70
2021,06,26,01,14,21.70
2021,06,26,01,15,21.70
2021,06,26,01,16,21.60
2021,06,26,01,17,21.60
2021,06,26,01,18,21.60
2021,06,26,01,19,21.60
2021,06,26,01,20,21.50
2021,06,26,01,21,21.50
2021,06,26,01,22,21.50
2021,06,26,01,23,21.40
2021,06,26,01,24,21.40
2021,06,26,01,25,21.40
2021,06,26,01,26,21.40
2021,06,26,01,27,21.40
2021,06,26,01,28,21.40
2021,06,26,01,29,21.40
2021,06,26,01,30,21.40
2021,06,26,01,31,21.30
2021,06,26,01,32,21.30
2021,06,26,01,33,21.30
2021,06,26,01,34,21.30
2021,06,26,01,35,21.30
2021,06,26,01,36,21.20
2021,06,26,01,37,21.20
2021,06,26,01,38,21.20
2021,06,26,01,39,21.10
2021,06,26,01,40,21.10
2021,06,26,01,41,21.10
2021,06,26,01,42,21.10
2021,06,26,01,43,21.10
2021,06,26,01,44,21.10
2021,06,26,01,45,21.10
2021,06,26,01,46,21.10
2021,06,26,01,47,21.10
2021,06,26,01,48,21.10
2021,06,26,01,49,21.10
2021,06,26,01,50,21.10
2021,06,26,01,51,21.10
2021,06,26,01,52,21.10
2021,06,26,01,53,21.10
2021,06,26,01,54,21.10
2021,06,26,01,55,21.10
2021,06,26,01,56,21.00
2021,06,26,01,57,21.00
2021,06,26,01,58,20.90
2021,06,26,01,59,20.90
2021,06,26,02,00,20.90
2021,06,26,02,01,20.90
2021,06,26,02,02,20.90
2021,06,26,02,03,20.90
2021,06,26,02,04,20.90
2021,06,26,02,05,20.90
2021,06,26,02,06,20.90
2021,06,26,02,07,20.90
2021,06,26,02,08,21.00
2021,06,26,02,09,21.00
2021,06,26,02,10,21.00
2021,06,26,02,11,21.00
2021,06,26,02,12,21.10
2021,06,26,02,13,21.10
2021,06,26,02,14,21.10
2021,06,26,02,15,21.10
2021,06,26,02,16,21.10
2021,06,26,02,17,21.10
2021,06,26,02,18,21.10
2021,06,26,02,19,21.10
2021,06,26,02,20,21.10
2021,06,26,02,21,21.10
2021,06,26,02,22,21.10
2021,06,26,02,23,21.10
2021,06,26,02,24,21.10
2021,06,26,02,25,21.10
2021,06,26,02,26,21.00
2021,06,26,02,27,21.00
2021,06,26,02,28,20.90
2021,06,26,02,29,20.90
2021,06,26,02,30,20.80
2021,06,26,02,31,20.80
2021,06,26,02,32,20.80
2021,06,26,02,33,20.70
2021,06,26,02,34,20.70
2021,06,26,02,35,20.70
2021,06,26,02,36,20.70
2021,06,26,02,37,20.70
2021,06,26,02,38,20.70
2021,06,26,02,39,20.80
2021,06,26,02,40,20.80
2021,06,26,02,41,20.80
2021,06,26,02,42,20.70
2021,06,26,02,43,20.80
2021,06,26,02,44,20.80
2021,06,26,02,45,20.70
2021,06,26,02,46,20.70
2021,06,26,02,47,20.70
2021,06,26,02,48,20.70
2021,06,26,02,49,20.70
2021,06,26,02,50,20.70
2021,06,26,02,51,20.70
2021,06,26,02,52,20.70
2021,06,26,02,53,20.70
2021,06,26,02,54,20.70
2021,06,26,02,55,20.70
2021,06,26,02,56,20.70
2021,06,26,02,57,20.70
2021,06,26,02,58,20.70
2021,06,26,02,59,20.70
2021,06,26,03,00,20.70
2021,06,26,03,01,20.60
2021,06,26,03,02,20.70
2021,06,26,03,03,20.70
2021,06,26,03,04,20.60
2021,06,26,03,05,20.60
2021,06,26,03,06,20.60
2021,06,26,03,07,20.50
2021,06,26,03,08,20.50
2021,06,26,03,09,20.40
2021,06,26,03,10,20.40
2021,06,26,03,11,20.40
2021,06,26,03,12,20.30
2021,06,26,03,13,20.30
2021,06,26,03,14,20.30
2021,06,26,03,15,20.30
2021,06,26,03,16,20.30
2021,06,26,03,17,20.30
2021,06,26,03,18,20.30
2021,06,26,03,19,20.30
2021,06,26,03,20,20.20
2021,06,26,03,21,20.20
2021,06,26,03,22,20.20
2021,06,26,03,23,20.10
2021,06,26,03,24,20.10
2021,06,26,03,25,20.10
2021,06,26,03,26,20.10
2021,06,26,03,27,20.10
2021,06,26,03,28,20.10
2021,06,26,03,29,20.00
2021,06,26,03,30,20.00
2021,06,26,03,31,20.00
2021,06,26,03,32,20.00
2021,06,26,03,33,20.00
2021,06,26,03,34,19.90
2021,06,26,03,35,19.90
2021,06,26,03,36,19.90
2021,06,26,03,37,19.80
2021,06,26,03,38,19.80
2021,06,26,03,39,19.80
2021,06,26,03,40,19.80
2021,06,26,03,41,19.80
2021,06,26,03,42,19.80
2021,06,26,03,43,19.80
2021,06,26,03,44,19.80
2021,06,26,03,45,19.80
2021,06,26,03,46,19.80
2021,06,26,03,47,19.80
2021,06,26,03,48,19.80
2021,06,26,03,49,19.80
2021,06,26,03,50,19.80
2021,06,26,03,51,19.80
2021,06,26,03,52,19.80
2021,06,26,03,53,19.80
2021,06,26,03,54,19.80
2021,06,26,03,55,19.80
2021,06,26,03,56,19.80
2021,06,26,03,57,19.80
2021,06,26,03,58,19.80
2021,06,26,03,59,19.80
2021,06,26,04,00,19.80
2021,06,26,04,01,19.80
2021,06,26,04,02,19.80
2021,06,26,04,03,19.70
2021,06,26,04,04,19.70
2021,06,26,04,05,19.60
2021,06,26,04,06,19.50
2021,06,26,04,07,19.40
2021,06,26,04,08,19.30
2021,06,26,04,09,19.30
2021,06,26,04,10,19.20
2021,06,26,04,11,19.20
2021,06,26,04,12,19.10
2021,06,26,04,13,19.10
2021,06,26,04,14,19.00
2021,06,26,04,15,18.90
2021,06,26,04,16,18.90
2021,06,26,04,17,18.80
2021,06,26,04,18,18.70
2021,06,26,04,19,18.60
2021,06,26,04,20,18.50
2021,06,26,04,21,18.40
2021,06,26,04,22,18.30
2021,06,26,04,23,18.30
2021,06,26,04,24,18.20
2021,06,26,04,25,18.20
2021,06,26,04,26,18.20
2021,06,26,04,27,18.20
2021,06,26,04,28,18.20
2021,06,26,04,29,18.10
2021,06,26,04,30,18.10
2021,06,26,04,31,18.10
2021,06,26,04,32,18.00
2021,06,26,04,33,18.00
2021,06,26,04,34,17.90
2021,06,26,04,35,17.90
2021,06,26,04,36,17.80
2021,06,26,04,37,17.80
2021,06,26,04,38,17.80
2021,06,26,04,39,17.80
2021,06,26,04,40,17.80
2021,06,26,04,41,17.70
2021,06,26,04,42,17.70
2021,06,26,04,43,17.70
2021,06,26,04,44,17.70
2021,06,26,04,45,17.70
2021,06,26,04,46,17.70
2021,06,26,04,47,17.70
2021,06,26,04,48,17.70
2021,06,26,04,49,17.70
2021,06,26,04,50,17.70
2021,06,26,04,51,17.70
2021,06,26,04,52,17.70
2021,06,26,04,53,17.70
2021,06,26,04,54,17.70
2021,06,26,04,55,17.70
2021,06,26,04,56,17.70
2021,06,26,04,57,17.70
2021,06,26,04,58,17.70
2021,06,26,04,59,17.70
2021,06,26,05,00,17.70
2021,06,26,05,01,17.70
2021,06,26,05,02,17.70
2021,06,26,05,03,17.70
2021,06,26,05,04,17.70
2021,06,26,05,05,17.70
2021,06,26,05,06,17.70
2021,06,26,05,07,17.70
2021,06,26,05,08,17.60
2021,06,26,05,09,17.60
2021,06,26,05,10,17.60
2021,06,26,05,11,17.60
2021,06,26,05,12,17.60
2021,06,26,05,13,17.60
2021,06,26,05,14,17.60
2021,06,26,05,15,17.60
2021,06,26,05,16,17.60
2021,06,26,05,17,17.60
2021,06,26,05,18,17.60
2021,06,26,05,19,17.60
2021,06,26,05,20,17.60
2021,06,26,05,21,17.70
2021,06,26,05,22,17.70
2021,06,26,05,23,17.70
2021,06,26,05,24,17.70
2021,06,26,05,25,17.70
2021,06,26,05,26,17.70
2021,06,26,05,27,17.70
2021,06,26,05,28,17.70
2021,06,26,05,29,17.70
2021,06,26,05,30,17.80
2021,06,26,05,31,17.80
2021,06,26,05,32,17.80
2021,06,26,05,33,17.90
2021,06,26,05,34,17.90
2021,06,26,05,35,18.00
2021,06,26,05,36,18.00
2021,06,26,05,37,18.10
2021,06,26,05,38,18.20
2021,06,26,05,39,18.20
2021,06,26,05,40,18.30
2021,06,26,05,41,18.30
2021,06,26,05,42,18.40
2021,06,26,05,43,18.40
2021,06,26,05,44,18.40
2021,06,26,05,45,18.50
2021,06,26,05,46,18.50
2021,06,26,05,47,18.60
2021,06,26,05,48,18.60
2021,06,26,05,49,18.60
2021,06,26,05,50,18.60
2021,06,26,05,51,18.70
2021,06,26,05,52,18.70
2021,06,26,05,53,18.70
2021,06,26,05,54,18.70
2021,06,26,05,55,18.80
2021,06,26,05,56,18.80
2021,06,26,05,57,18.80
2021,06,26,05,58,18.80
2021,06,26,05,59,18.80
2021,06,26,06,00,18.90
2021,06,26,06,01,18.90
2021,06,26,06,02,19.00
2021,06,26,06,03,19.00
2021,06,26,06,04,19.00
2021,06,26,06,05,19.10
2021,06,26,06,06,19.10
2021,06,26,06,07,19.10
2021,06,26,06,08,19.10
2021,06,26,06,09,19.10
2021,06,26,06,10,19.10
2021,06,26,06,11,19.10
2021,06,26,06,12,19.10
2021,06,26,06,13,19.10
2021,06,26,06,14,19.10
2021,06,26,06,15,19.10
2021,06,26,06,16,19.10
2021,06,26,06,17,19.10
2021,06,26,06,18,19.20
2021,06,26,06,19,19.20
2021,06,26,06,20,19.30
2021,06,26,06,21,19.40
2021,06,26,06,22,19.50
2021,06,26,06,23,19.70
2021,06,26,06,24,19.80
2021,06,26,06,25,20.00
2021,06,26,06,26,20.20
2021,06,26,06,27,20.40
2021,06,26,06,28,20.60
2021,06,26,06,29,20.70
2021,06,26,06,30,20.90
2021,06,26,06,31,21.00
2021,06,26,06,32,21.10
2021,06,26,06,33,21.20
2021,06,26,06,34,21.30
2021,06,26,06,35,21.40
2021,06,26,06,36,21.40
2021,06,26,06,37,21.50
2021,06,26,06,38,21.60
2021,06,26,06,39,21.60
2021,06,26,06,40,21.70
2021,06,26,06,41,21.70
2021,06,26,06,42,21.80
2021,06,26,06,43,21.80
2021,06,26,06,44,21.90
2021,06,26,06,45,21.90
2021,06,26,06,46,22.00
2021,06,26,06,47,22.10
2021,06,26,06,48,22.20
2021,06,26,06,49,22.20
2021,06,26,06,50,22.30
2021,06,26,06,51,22.40
2021,06,26,06,52,22.40
2021,06,26,06,53,22.50
2021,06,26,06,54,22.60
2021,06,26,06,55,22.60
2021,06,26,06,56,22.70
2021,06,26,06,57,22.70
2021,06,26,06,58,22.80
2021,06,26,06,59,22.80
2021,06,26,07,00,22.90
2021,06,26,07,01,23.00
2021,06,26,07,02,23.00
2021,06,26,07,03,23.10
2021,06,26,07,04,23.20
2021,06,26,07,05,23.30
2021,06,26,07,06,23.30
2021,06,26,07,07,23.40
2021,06,26,07,08,23.50
2021,06,26,07,09,23.60
2021,06,26,07,10,23.70
2021,06,26,07,11,23.80
2021,06,26,07,12,23.90
2021,06,26,07,13,24.00
2021,06,26,07,14,24.10
2021,06,26,07,15,24.10
2021,06,26,07,16,24.20
2021,06,26,07,17,24.30
2021,06,26,07,18,24.40
2021,06,26,07,19,24.40
2021,06,26,07,20,24.50
2021,06,26,07,21,24.50
2021,06,26,07,22,24.60
2021,06,26,07,23,24.60
2021,06,26,07,24,24.70
2021,06,26,07,25,24.70
2021,06,26,07,26,24.70
2021,06,26,07,27,24.70
2021,06,26,07,28,24.80
2021,06,26,07,29,24.80
2021,06,26,07,30,24.80
2021,06,26,07,31,24.80
2021,06,26,07,32,24.80
2021,06,26,07,33,24.80
2021,06,26,07,34,24.80
2021,06,26,07,35,24.80
2021,06,26,07,36,24.80
2021,06,26,07,37,24.90
2021,06,26,07,38,24.90
2021,06,26,07,39,25.00
2021,06,26,07,40,25.10
2021,06,26,07,41,25.20
2021,06,26,07,42,25.20
2021,06,26,07,43,25.30
2021,06,26,07,44,25.30
2021,06,26,07,45,25.40
2021,06,26,07,46,25.50
2021,06,26,07,47,25.60
2021,06,26,07,48,25.60
2021,06,26,07,49,25.70
2021,06,26,07,50,25.70
2021,06,26,07,51,25.70
2021,06,26,07,52,25.80
2021,06,26,07,53,25.80
2021,06,26,07,54,25.90
2021,06,26,07,55,25.90
2021,06,26,07,56,26.00
2021,06,26,07,57,26.00
2021,06,26,07,58,26.10
2021,06,26,07,59,26.10
2021,06,26,08,00,25.90
2021,06,26,08,01,25.70
2021,06,26,08,02,25.40
2021,06,26,08,03,25.00
2021,06,26,08,04,24.50
2021,06,26,08,05,24.00
2021,06,26,08,06,23.30
2021,06,26,08,07,22.80
2021,06,26,08,08,22.20
2021,06,26,08,09,21.90
2021,06,26,08,10,21.50
2021,06,26,08,11,21.20
2021,06,26,08,12,20.90
2021,06,26,08,13,20.70
2021,06,26,08,14,20.60
2021,06,26,08,15,20.40
2021,06,26,08,16,20.30
2021,06,26,08,17,20.30
2021,06,26,08,18,20.20
2021,06,26,08,19,20.20
2021,06,26,08,20,20.10
2021,06,26,08,21,20.10
2021,06,26,08,22,20.10
2021,06,26,08,23,20.10
2021,06,26,08,24,20.10
2021,06,26,08,25,20.10
2021,06,26,08,26,20.10
2021,06,26,08,27,20.10
2021,06,26,08,28,20.10
2021,06,26,08,29,20.20
2021,06,26,08,30,20.20
2021,06,26,08,31,20.20
2021,06,26,08,32,20.20
2021,06,26,08,33,20.30
2021,06,26,08,34,20.20
2021,06,26,08,35,20.20
2021,06,26,08,36,20.20
2021,06,26,08,37,20.30
2021,06,26,08,38,20.30
2021,06,26,08,39,20.30
2021,06,26,08,40,20.30
2021,06,26,08,41,20.40
2021,06,26,08,42,20.50
2021,06,26,08,43,20.50
2021,06,26,08,44,20.60
2021,06,26,08,45,20.70
2021,06,26,08,46,20.70
2021,06,26,08,47,20.70
2021,06,26,08,48,20.80
2021,06,26,08,49,20.80
2021,06,26,08,50,20.90
2021,06,26,08,51,20.90
2021,06,26,08,52,21.00
2021,06,26,08,53,21.10
2021,06,26,08,54,21.20
2021,06,26,08,55,21.30
2021,06,26,08,56,21.40
2021,06,26,08,57,21.50
2021,06,26,08,58,21.70
2021,06,26,08,59,21.90
2021,06,26,09,00,22.10
2021,06,26,09,01,22.20
2021,06,26,09,02,22.30
2021,06,26,09,03,22.40
2021,06,26,09,04,22.40
2021,06,26,09,05,22.50
2021,06,26,09,06,22.60
2021,06,26,09,07,22.60
2021,06,26,09,08,22.60
2021,06,26,09,09,22.70
2021,06,26,09,10,22.70
2021,06,26,09,11,22.70
2021,06,26,09,12,22.70
2021,06,26,09,13,22.80
2021,06,26,09,14,22.80
2021,06,26,09,15,22.80
2021,06,26,09,16,22.80
2021,06,26,09,17,22.80
2021,06,26,09,18,22.70
2021,06,26,09,19,22.70
2021,06,26,09,20,22.60
2021,06,26,09,21,22.60
2021,06,26,09,22,22.50
2021,06,26,09,23,22.50
2021,06,26,09,24,22.50
2021,06,26,09,25,22.50
2021,06,26,09,26,22.50
2021,06,26,09,27,22.50
2021,06,26,09,28,22.50
2021,06,26,09,29,22.50
2021,06,26,09,30,22.60
2021,06,26,09,31,22.70
2021,06,26,09,32,22.70
2021,06,26,09,33,22.70
2021,06,26,09,34,22.70
2021,06,26,09,35,22.80
2021,06,26,09,36,22.70
2021,06,26,09,37,22.70
2021,06,26,09,38,22.60
2021,06,26,09,39,22.60
2021,06,26,09,40,22.50
2021,06,26,09,41,22.60
2021,06,26,09,42,22.60
2021,06,26,09,43,22.60
2021,06,26,09,44,22.70
2021,06,26,09,45,22.80
2021,06,26,09,46,22.80
2021,06,26,09,47,23.00
2021,06,26,09,48,23.10
2021,06,26,09,49,23.40
2021,06,26,09,50,23.60
2021,06,26,09,51,24.00
2021,06,26,09,52,24.50
2021,06,26,09,53,25.00
2021,06,26,09,54,25.40
2021,06,26,09,55,25.80
2021,06,26,09,56,26.10
2021,06,26,09,57,26.50
2021,06,26,09,58,26.80
2021,06,26,09,59,27.10
2021,06,26,10,00,27.30
2021,06,26,10,01,27.50
2021,06,26,10,02,27.60
2021,06,26,10,03,27.80
2021,06,26,10,04,27.90
2021,06,26,10,05,28.00
2021,06,26,10,06,28.00
2021,06,26,10,07,28.10
2021,06,26,10,08,28.20
2021,06,26,10,09,28.30
2021,06,26,10,10,28.40
2021,06,26,10,11,28.50
2021,06,26,10,12,28.60
2021,06,26,10,13,28.70
2021,06,26,10,14,28.70
2021,06,26,10,15,28.80
2021,06,26,10,16,28.80
2021,06,26,10,17,28.80
2021,06,26,10,18,28.80
2021,06,26,10,19,28.80
2021,06,26,10,20,28.80
2021,06,26,10,21,28.80
2021,06,26,10,22,28.80
2021,06,26,10,23,28.90
2021,06,26,10,24,28.90
2021,06,26,10,25,28.90
2021,06,26,10,26,28.90
2021,06,26,10,27,28.90
2021,06,26,10,28,28.90
2021,06,26,10,29,28.90
2021,06,26,10,30,29.00
2021,06,26,10,31,29.00
2021,06,26,10,32,29.00
2021,06,26,10,33,29.10
2021,06,26,10,34,29.10
2021,06,26,10,35,29.10
2021,06,26,10,36,29.20
2021,06,26,10,37,29.20
2021,06,26,10,38,29.20
2021,06,26,10,39,29.30
2021,06,26,10,40,29.30
2021,06,26,10,41,29.40
2021,06,26,10,42,29.40
2021,06,26,10,43,29.50
2021,06,26,10,44,29.60
2021,06,26,10,45,29.60
2021,06,26,10,46,29.70
2021,06,26,10,47,29.80
2021,06,26,10,48,29.80
2021,06,26,10,49,29.90
2021,06,26,10,50,29.90
2021,06,26,10,51,29.90
2021,06,26,10,52,30.00
2021,06,26,10,53,30.00
2021,06,26,10,54,30.10
2021,06,26,10,55,30.10
2021,06,26,10,56,30.20
2021,06,26,10,57,30.20
2021,06,26,10,58,30.20
2021,06,26,10,59,30.30
2021,06,26,11,00,30.30
2021,06,26,11,01,30.30
2021,06,26,11,02,30.40
2021,06,26,11,03,30.40
2021,06,26,11,04,30.50
2021,06,26,11,05,30.60
2021,06,26,11,06,30.60
2021,06,26,11,07,30.60
2021,06,26,11,08,30.60
2021,06,26,11,09,30.70
2021,06,26,11,10,30.70
2021,06,26,11,11,30.70
2021,06,26,11,12,30.70
2021,06,26,11,13,30.70
2021,06,26,11,14,30.70
2021,06,26,11,15,30.70
2021,06,26,11,16,30.80
2021,06,26,11,17,30.80
2021,06,26,11,18,30.80
2021,06,26,11,19,30.80
2021,06,26,11,20,30.80
2021,06,26,11,21,30.70
2021,06,26,11,22,30.60
2021,06,26,11,23,30.50
2021,06,26,11,24,30.40
2021,06,26,11,25,30.40
2021,06,26,11,26,30.40
2021,06,26,11,27,30.40
2021,06,26,11,28,30.40
2021,06,26,11,29,30.40
2021,06,26,11,30,30.50
2021,06,26,11,31,30.50
2021,06,26,11,32,30.60
2021,06,26,11,33,30.70
2021,06,26,11,34,30.80
2021,06,26,11,35,30.90
2021,06,26,11,36,31.00
2021,06,26,11,37,31.00
2021,06,26,11,38,31.00
2021,06,26,11,39,31.00
2021,06,26,11,40,31.00
2021,06,26,11,41,31.10
2021,06,26,11,42,31.10
2021,06,26,11,43,31.10
2021,06,26,11,44,31.00
2021,06,26,11,45,30.90
2021,06,26,11,46,31.00
2021,06,26,11,47,31.00
2021,06,26,11,48,30.90
2021,06,26,11,49,30.90
2021,06,26,11,50,30.90
2021,06,26,11,51,30.90
2021,06,26,11,52,31.00
2021,06,26,11,53,31.10
2021,06,26,11,54,31.20
2021,06,26,11,55,31.40
2021,06,26,11,56,31.40
2021,06,26,11,57,31.40
2021,06,26,11,58,31.40
2021,06,26,11,59,31.50
2021,06,26,12,00,31.50
2021,06,26,12,01,31.40
2021,06,26,12,02,31.40
2021,06,26,12,03,31.40
2021,06,26,12,04,31.40
2021,06,26,12,05,31.30
2021,06,26,12,06,31.30
2021,06,26,12,07,31.30
2021,06,26,12,08,31.30
2021,06,26,12,09,31.40
2021,06,26,12,10,31.50
2021,06,26,12,11,31.60
2021,06,26,12,12,31.70
2021,06,26,12,13,31.80
2021,06,26,12,14,31.80
2021,06,26,12,15,31.90
2021,06,26,12,16,32.00
2021,06,26,12,17,32.10
2021,06,26,12,18,32.20
2021,06,26,12,19,32.30
2021,06,26,12,20,32.50
2021,06,26,12,21,32.60
2021,06,26,12,22,32.70
2021,06,26,12,23,32.70
2021,06,26,12,24,32.70
2021,06,26,12,25,32.80
2021,06,26,12,26,32.90
2021,06,26,12,27,32.90
2021,06,26,12,28,33.00
2021,06,26,12,29,33.10
2021,06,26,12,30,33.10
2021,06,26,12,31,33.20
2021,06,26,12,32,33.10
2021,06,26,12,33,33.10
2021,06,26,12,34,33.00
2021,06,26,12,35,33.00
2021,06,26,12,36,33.00
2021,06,26,12,37,33.00
2021,06,26,12,38,33.00
2021,06,26,12,39,33.10
2021,06,26,12,40,33.10
2021,06,26,12,41,33.10
2021,06,26,12,42,33.00
2021,06,26,12,43,32.90
2021,06,26,12,44,32.90
2021,06,26,12,45,32.80
2021,06,26,12,46,32.80
2021,06,26,12,47,32.70
2021,06,26,12,48,32.70
2021,06,26,12,49,32.80
2021,06,26,12,50,32.80
2021,06,26,12,51,32.90
2021,06,26,12,52,32.90
2021,06,26,12,53,33.00
2021,06,26,12,54,33.10
2021,06,26,12,55,33.20
2021,06,26,12,56,33.20
2021,06,26,12,57,33.20
2021,06,26,12,58,33.20
2021,06,26,12,59,33.20
2021,06,26,13,00,33.20
2021,06,26,13,01,33.30
2021,06,26,13,02,33.40
2021,06,26,13,03,33.50
2021,06,26,13,04,33.50
2021,06,26,13,05,33.60
2021,06,26,13,06,33.80
2021,06,26,13,07,33.90
2021,06,26,13,08,34.00
2021,06,26,13,09,34.10
2021,06,26,13,10,34.20
2021,06,26,13,11,34.30
2021,06,26,13,12,34.30
2021,06,26,13,13,34.40
2021,06,26,13,14,34.40
2021,06,26,13,15,34.40
2021,06,26,13,16,34.30
2021,06,26,13,17,34.30
2021,06,26,13,18,34.20
2021,06,26,13,19,34.20
2021,06,26,13,20,34.30
2021,06,26,13,21,34.30
2021,06,26,13,22,34.40
2021,06,26,13,23,34.40
2021,06,26,13,24,34.20
2021,06,26,13,25,34.10
2021,06,26,13,26,33.90
2021,06,26,13,27,33.80
2021,06,26,13,28,33.70
2021,06,26,13,29,33.50
2021,06,26,13,30,33.20
2021,06,26,13,31,32.80
2021,06,26,13,32,32.30
2021,06,26,13,33,31.90
2021,06,26,13,34,31.50
2021,06,26,13,35,30.80
2021,06,26,13,36,30.30
2021,06,26,13,37,29.80
2021,06,26,13,38,29.60
2021,06,26,13,39,29.40
2021,06,26,13,40,29.20
2021,06,26,13,41,29.10
2021,06,26,13,42,29.00
2021,06,26,13,43,28.90
2021,06,26,13,44,28.70
2021,06,26,13,45,28.50
2021,06,26,13,46,28.40
2021,06,26,13,47,28.30
2021,06,26,13,48,28.10
2021,06,26,13,49,28.00
2021,06,26,13,50,28.00
2021,06,26,13,51,28.00
2021,06,26,13,52,28.10
2021,06,26,13,53,28.20
2021,06,26,13,54,28.30
2021,06,26,13,55,28.40
2021,06,26,13,56,28.50
2021,06,26,13,57,28.70
2021,06,26,13,58,28.80
2021,06,26,13,59,28.90
2021,06,26,14,00,28.90
2021,06,26,14,01,29.00
2021,06,26,14,02,29.10
2021,06,26,14,03,29.10
2021,06,26,14,04,29.10
2021,06,26,14,05,29.20
2021,06,26,14,06,29.20
2021,06,26,14,07,29.30
2021,06,26,14,08,29.30
2021,06,26,14,09,29.30
2021,06,26,14,10,29.40
2021,06,26,14,11,29.40
2021,06,26,14,12,29.40
2021,06,26,14,13,29.40
2021,06,26,14,14,29.40
2021,06,26,14,15,29.50
2021,06,26,14,16,29.50
2021,06,26,14,17,29.50
2021,06,26,14,18,29.60
2021,06,26,14,19,29.70
2021,06,26,14,20,29.80
2021,06,26,14,21,29.90
2021,06,26,14,22,30.00
2021,06,26,14,23,30.10
2021,06,26,14,24,30.10
2021,06,26,14,25,30.10
2021,06,26,14,26,30.10
2021,06,26,14,27,30.10
2021,06,26,14,28,30.20
2021,06,26,14,29,30.10
2021,06,26,14,30,30.10
2021,06,26,14,31,30.10
2021,06,26,14,32,30.20
2021,06,26,14,33,30.20
2021,06,26,14,34,30.30
2021,06,26,14,35,30.50
2021,06,26,14,36,30.70
2021,06,26,14,37,30.80
2021,06,26,14,38,31.00
2021,06,26,14,39,31.10
2021,06,26,14,40,31.20
2021,06,26,14,41,31.20
2021,06,26,14,42,31.20
2021,06,26,14,43,31.30
2021,06,26,14,44,31.40
2021,06,26,14,45,31.60
2021,06,26,14,46,31.80
2021,06,26,14,47,31.90
2021,06,26,14,48,31.90
2021,06,26,14,49,31.80
2021,06,26,14,50,31.70
2021,06,26,14,51,31.60
2021,06,26,14,52,31.40
2021,06,26,14,53,31.30
2021,06,26,14,54,31.30
2021,06,26,14,55,31.40
2021,06,26,14,56,31.50
2021,06,26,14,57,31.60
2021,06,26,14,58,31.70
2021,06,26,14,59,31.80
2021,06,26,15,00,31.80
2021,06,26,15,01,31.90
2021,06,26,15,02,32.10
2021,06,26,15,03,32.30
2021,06,26,15,04,32.40
2021,06,26,15,05,32.60
2021,06,26,15,06,32.70
2021,06,26,15,07,32.40
2021,06,26,15,08,32.00
2021,06,26,15,09,31.70
2021,06,26,15,10,31.50
2021,06,26,15,11,31.30
2021,06,26,15,12,31.20
2021,06,26,15,13,31.20
2021,06,26,15,14,31.30
2021,06,26,15,15,31.50
2021,06,26,15,16,31.70
2021,06,26,15,17,31.80
2021,06,26,15,18,31.80
2021,06,26,15,19,31.70
2021,06,26,15,20,31.60
2021,06,26,15,21,31.60
2021,06,26,15,22,31.60
2021,06,26,15,23,31.80
2021,06,26,15,24,31.90
2021,06,26,15,25,32.10
2021,06,26,15,26,32.40
2021,06,26,15,27,32.60
2021,06,26,15,28,32.70
2021,06,26,15,29,32.70
2021,06,26,15,30,32.80
2021,06,26,15,31,32.80
2021,06,26,15,32,32.70
2021,06,26,15,33,32.60
2021,06,26,15,34,32.50
2021,06,26,15,35,32.40
2021,06,26,15,36,32.30
2021,06,26,15,37,32.20
2021,06,26,15,38,31.90
2021,06,26,15,39,31.60
2021,06,26,15,40,31.20
2021,06,26,15,41,30.90
2021,06,26,15,42,30.70
2021,06,26,15,43,30.50
2021,06,26,15,44,30.40
2021,06,26,15,45,30.30
2021,06,26,15,46,30.20
2021,06,26,15,47,30.10
2021,06,26,15,48,29.90
2021,06,26,15,49,29.80
2021,06,26,15,50,29.70
2021,06,26,15,51,29.60
2021,06,26,15,52,29.70
2021,06,26,15,53,29.70
2021,06,26,15,54,29.70
2021,06,26,15,55,29.60
2021,06,26,15,56,29.60
2021,06,26,15,57,29.60
2021,06,26,15,58,29.70
2021,06,26,15,59,29.80
2021,06,26,16,00,29.80
2021,06,26,16,01,29.80
2021,06,26,16,02,29.70
2021,06,26,16,03,29.70
2021,06,26,16,04,29.60
2021,06,26,16,05,29.60
2021,06,26,16,06,29.60
2021,06,26,16,07,29.80
2021,06,26,16,08,29.90
2021,06,26,16,09,29.90
2021,06,26,16,10,29.80
2021,06,26,16,11,29.70
2021,06,26,16,12,29.70
2021,06,26,16,13,29.70
2021,06,26,16,14,29.80
2021,06,26,16,15,29.80
2021,06,26,16,16,30.00
2021,06,26,16,17,30.00
2021,06,26,16,18,30.00
2021,06,26,16,19,30.10
2021,06,26,16,20,30.10
2021,06,26,16,21,30.00
2021,06,26,16,22,29.90
2021,06,26,16,23,29.90
2021,06,26,16,24,29.90
2021,06,26,16,25,29.90
2021,06,26,16,26,30.00
2021,06,26,16,27,30.10
2021,06,26,16,28,30.10
2021,06,26,16,29,30.10
2021,06,26,16,30,30.20
2021,06,26,16,31,30.30
2021,06,26,16,32,30.40
2021,06,26,16,33,30.60
2021,06,26,16,34,30.70
2021,06,26,16,35,30.80
2021,06,26,16,36,30.70
2021,06,26,16,37,30.60
2021,06,26,16,38,30.50
2021,06,26,16,39,30.50
2021,06,26,16,40,30.50
2021,06,26,16,41,30.40
2021,06,26,16,42,30.40
2021,06,26,16,43,30.40
2021,06,26,16,44,30.40
2021,06,26,16,45,30.50
2021,06,26,16,46,30.50
2021,06,26,16,47,30.50
2021,06,26,16,48,30.40
2021,06,26,16,49,30.40
2021,06,26,16,50,30.40
2021,06,26,16,51,30.40
2021,06,26,16,52,30.30
2021,06,26,16,53,30.40
2021,06,26,16,54,30.40
2021,06,26,16,55,30.40
2021,06,26,16,56,30.50
2021,06,26,16,57,30.50
2021,06,26,16,58,30.70
2021,06,26,16,59,30.80
2021,06,26,17,00,30.80
2021,06,26,17,01,30.80
2021,06,26,17,02,30.70
2021,06,26,17,03,30.60
2021,06,26,17,04,30.60
2021,06,26,17,05,30.50
2021,06,26,17,06,30.60
2021,06,26,17,07,30.60
2021,06,26,17,08,30.60
2021,06,26,17,09,30.70
2021,06,26,17,10,30.70
2021,06,26,17,11,30.80
2021,06,26,17,12,30.80
2021,06,26,17,13,30.90
2021,06,26,17,14,30.90
2021,06,26,17,15,31.00
2021,06,26,17,16,31.10
2021,06,26,17,17,31.10
2021,06,26,17,18,31.20
2021,06,26,17,19,31.30